Flag Weather past 2 weeks in Baton Rouge, Louisiana, U.S.A.

Now
47 °F

Clear.


Feels Like: 46 °F
Forecast: 46 / 70 °F
Wind: 3 mph from Southeast

Location: Baton Rouge Metropolitan - Ryan Field

Current Time: Nov 29, 2014 at 2:47:57 AM

Latest Report: Nov 29, 2014 at 1:53 AM


Visibility: 9 mi

Pressure: 30.19 "Hg

Humidity: 90%

Dew point: 44 °F

Location of Baton RougeLocation

Historic Weather in Baton Rouge — Graph

°F

Baton Rouge temperature yesterday

Maximum temperature yesterday: 61 °F (at 1:53 PM)
Minimum temperature yesterday: 34 °F (at 4:53 AM)
Average temperature yesterday: 47 °F

Past Weeks' High & Low Weather Summary

 TemperatureHumidityPressure
High75 °F (Nov 16, 11:53 AM)97% (Nov 16, 9:53 PM)30.52 "Hg (Nov 16, 9:53 PM)
Low27 °F (Nov 19, 3:53 AM)22% (Nov 19, 3:53 PM)29.59 "Hg (Nov 23, 2:53 PM)
Average51 °F66%30.19 "Hg
* Reported Nov 14 12:53 AM — Nov 29 12:53 AM, Baton Rouge, Weather by CustomWeather, © 2014

Note: Actual official high and low records may vary slightly from our data, if they occured in-between our weather recording intervals... More about our weather records

Advertising

Baton Rouge weather history for previous 24 hours

 ConditionsComfort  
Time TempWeatherWind HumidityBarometerVisibility
12:53 AM
Nov 29
48 °FClear.6 mph86%30.20 "Hg10 mi
11:53 PM
Nov 28
48 °FClear.6 mph86%30.22 "Hg10 mi
10:53 PM47 °FClear.6 mph83%30.23 "Hg10 mi
9:53 PM49 °FClear.9 mph80%30.24 "Hg10 mi
8:53 PM49 °FClear.5 mph80%30.25 "Hg10 mi
7:53 PM49 °FClear.7 mph77%30.27 "Hg10 mi
6:53 PM50 °FClear.9 mph68%30.27 "Hg10 mi
5:53 PM50 °FClear.8 mph57%30.26 "Hg10 mi
4:53 PM57 °FSunny.5 mph39%30.27 "Hg10 mi
3:53 PM61 °FSunny.8 mph34%30.27 "Hg10 mi
2:53 PM61 °FSunny.8 mph34%30.28 "Hg10 mi
1:53 PM61 °FSunny.6 mph34%30.30 "Hg10 mi
12:53 PM59 °FSunny.6 mph36%30.33 "Hg10 mi
11:53 AM58 °FSunny.9 mph36%30.37 "Hg10 mi
10:53 AM54 °FSunny.6 mph41%30.40 "Hg10 mi
9:53 AM50 °FSunny.8 mph50%30.43 "Hg10 mi
8:53 AM45 °FSunny.8 mph60%30.44 "Hg10 mi
7:53 AM39 °FSunny.7 mph79%30.44 "Hg10 mi
6:53 AM34 °FSunny.5 mph88%30.42 "Hg10 mi
5:53 AM34 °FClear.5 mph88%30.42 "Hg10 mi
4:53 AM34 °FClear.5 mph88%30.42 "Hg10 mi
3:53 AM35 °FClear.5 mph85%30.42 "Hg10 mi
2:53 AM36 °FClear.5 mph82%30.42 "Hg10 mi
Weather by CustomWeather, © 2014

See weather overviewHow to use our weather pages